Terug naar catalogus

STARLINK-35299

ActiefCommunicatieVLEO
NORAD 66072·PAYLOAD·🇺🇸 United States

Gelanceerd Oct 19, 2025 vanaf Cape Canaveral Space Force Station

Loading…

Volgende Passages (komende 24 uur)

TLE

VersSource: CelesTrak SupGP

Epoch: Sep 15, 2026, 03:28 UTC

1 66072C 25235Q   26258.14493056 -.00022171  00000+0 -65486-3 0  2587
2 66072  53.1576  82.5762 0001272  96.5449 344.9126 15.34410197    14

Volg STARLINK-35299 in realtime met AllMySat

Download on the App Store